Location: Central Falls
(41.8900°N, 71.3929°W)
Time: 16:13:43
(UTC+00:00)

Vanguard 1 Rocket - Pass Details

Date: 05 December 2023
Orbit: 654 x 4218 km, 34.3° (Epoch: 24 February)

Event Time Altitude Azimuth Distance (km) Brightness Sun altitude
Rises 11:42:25 0° 258° (WSW) 7,864 11.7 -3.3°
Reaches altitude 10° 11:48:30 10° 256° (WSW) 6,399 11.3 -2.3°
Maximum altitude 12:06:06 61° 182° (S) 2,304 9.7 0.5°
Drops below altitude 10° 12:15:00 10° 104° (ESE) 3,429 12.0 1.9°
Sets 12:17:15 0° 101° (E) 4,112 12.3 2.3°
